(207899) Grinmalia = 2007 LX25 = 2008 UC3

Discovered at Andrushivka on 2008-10-21 by Andrushivka.
(207899) Grinmalia = 2008 UC3

Eugene Grinishyn (b. 1956), a stonemason, and Sergiy Malinovskiy (b. 1964), a farmer, are neighbors of the Andrushivka Observatory, for which they have carried out construction and repairs. They also help with transportation and meals for the scientific workshops regularly held at the Observatory. [Ref: Minor Planet Circ. 68450]

Orbit

Orbit type: Main Belt

Note: WebGL enabled browser required.

epoch2023-09-13.0
epoch JD2460200.5
perihelion date2019-05-12.11527
perihelion JD2458615.61527
argument of perihelion (°)244.13853
ascending node (°)181.68520
inclination (°)7.63950
eccentricity0.2555178
perihelion distance (AU)2.2338071
Tisserand w.r.t. Jupiter3.2
ΔV w.r.t. Earth (km/sec)9.7
semimajor axis (AU)3.0004842
mean anomaly (°)300.54846
mean daily motion (°/day)0.18963430
aphelion distance (AU)3.767
period (years)5.2
P-vector [x]0.40978010
P-vector [y]0.87726929
P-vector [z]0.24995772
Q-vector [x]-0.91217596
Q-vector [y]0.39526602
Q-vector [z]0.10816553
absolute magnitude15.69
phase slope0.15
uncertainty0
referenceMPO 778429
observations used624
oppositions15
arc length (days)8595
first opposition used2000
last opposition used2023
residual rms (arc-secs)0.72
perturbers coarse indicatorM-v
perturbers precise indicator003Ek
first observation date used2000-04-28.0
last observation date used2023-11-09.0
computer nameMPCLINUX
JD of orbit computation2456700.293656
perihelion JD uncertainty (days)7.1195E-05
argument of perihelion uncertainty (°)4.4726E-05
ascending node uncertainty (°)4.1758E-05
inclination uncertainty (°)8.9707E-06
eccentricity uncertainty 7.8974E-08
perihelion distance uncertainty (AU)2.5144E-07
Minimum Orbit Intersection Distances (in AU)
for orbit epoch: 2460200.5, reference: E2023-VG7
Mercury1.92842
Venus1.51834
Earth1.25853
Mars0.75265
Jupiter1.64776
Saturn6.23903
Uranus15.1023
Neptune26.8281

Observations

643 total observations over interval: 2000 04 28.22216 – 2023 11 09.138769
These data are available for download (format description).

Date (UT) J2000 RA J2000 Dec Magn Location Ref
2000 04 28.22216 13 51 30.00 -05 57 48.4 21.6 V 691 – Steward Observatory, Kitt Peak-Spacewatch MPS 261789
2000 04 28.24298 13 51 29.06 -05 57 41.0 21.9 V 691 – Steward Observatory, Kitt Peak-Spacewatch MPS 261789
2000 04 28.26380 13 51 28.13 -05 57 34.9 21.2 V 691 – Steward Observatory, Kitt Peak-Spacewatch MPS 261789
2002 08 16.36725 21 28 52.46 -07 09 28.6 19.7   644 – Palomar Mountain/NEAT MPS 261789
2002 08 16.39056 21 28 51.31 -07 09 36.7 20.2   644 – Palomar Mountain/NEAT MPS 261789
2002 08 16.41157 21 28 50.29 -07 09 44.0 19.7   644 – Palomar Mountain/NEAT MPS 261789
2002 08 26.15161 21 21 23.60 -08 06 15.2 20.8   644 – Palomar Mountain/NEAT MPS 261789
2002 08 26.21528 21 21 20.76 -08 06 38.3 20.2   644 – Palomar Mountain/NEAT MPS 261789
2002 08 26.28388 21 21 17.59 -08 07 02.9 20.2   644 – Palomar Mountain/NEAT MPS 261789
2005 03 09.40530 13 22 28.04 -06 40 22.6 20.2 R G96 – Mt. Lemmon Survey MPS 261789
2005 03 09.41299 13 22 27.82 -06 40 20.5 19.8 R G96 – Mt. Lemmon Survey MPS 261789
2005 03 09.42056 13 22 27.56 -06 40 18.0 19.9 R G96 – Mt. Lemmon Survey MPS 261789
2005 03 09.42815 13 22 27.35 -06 40 15.8 20.1 R G96 – Mt. Lemmon Survey MPS 261789
2005 04 02.17182 13 07 10.21 -04 19 46.5 20.8 V 691 – Steward Observatory, Kitt Peak-Spacewatch MPS 261789
2005 04 02.19199 13 07 09.33 -04 19 38.7 20.2 V 691 – Steward Observatory, Kitt Peak-Spacewatch MPS 261789
2005 04 02.20984 13 07 08.53 -04 19 32.3 20.2 V 691 – Steward Observatory, Kitt Peak-Spacewatch MPS 261789
2005 04 11.27436 13 00 29.78 -03 22 58.4 19.5 R G96 – Mt. Lemmon Survey MPS 261789
2005 04 11.27963 13 00 29.56 -03 22 56.8 20.0 R G96 – Mt. Lemmon Survey MPS 261789
2005 04 11.28488 13 00 29.31 -03 22 54.5 19.9 R G96 – Mt. Lemmon Survey MPS 261789
2005 04 11.29020 13 00 29.08 -03 22 52.6 19.8 R G96 – Mt. Lemmon Survey MPS 261789
2006 05 25.33893 16 39 03.45 -12 29 58.2 20.3 V G96 – Mt. Lemmon Survey MPS 261789
2006 05 25.34350 16 39 03.24 -12 29 57.2 20.0 V G96 – Mt. Lemmon Survey MPS 261789
2006 05 25.34810 16 39 03.02 -12 29 56.4 20.4 V G96 – Mt. Lemmon Survey MPS 261789
2006 05 25.35260 16 39 02.84 -12 29 55.7 20.2 V G96 – Mt. Lemmon Survey MPS 261789
2007 06 14.41979 20 43 20.74 -08 56 29.8 21.4 V 691 – Steward Observatory, Kitt Peak-Spacewatch MPS 211106
2007 06 14.43746 20 43 20.43 -08 56 28.9 21.2 V 691 – Steward Observatory, Kitt Peak-Spacewatch MPS 211106
2007 06 14.45512 20 43 20.21 -08 56 28.0 21.0 V 691 – Steward Observatory, Kitt Peak-Spacewatch MPS 211106
2007 06 18.42448 20 42 13.56 -08 54 30.3 21.5 V 691 – Steward Observatory, Kitt Peak-Spacewatch MPS 211106
2007 06 18.44217 20 42 13.20 -08 54 29.9 21.0 V 691 – Steward Observatory, Kitt Peak-Spacewatch MPS 211106
2007 06 18.45986 20 42 12.85 -08 54 29.8 20.9 V 691 – Steward Observatory, Kitt Peak-Spacewatch MPS 211106
2008 09 07.41453 03 55 51.02 +14 58 21.3   704 – Lincoln Laboratory ETS, New Mexico MPS 406919
2008 09 07.42805 03 55 51.73 +14 58 18.8   704 – Lincoln Laboratory ETS, New Mexico MPS 406919
2008 09 07.44154 03 55 52.49 +14 58 17.3   704 – Lincoln Laboratory ETS, New Mexico MPS 406919
2008 09 23.35705 04 08 26.96 +14 15 47.2   704 – Lincoln Laboratory ETS, New Mexico MPS 406919
2008 09 23.36897 04 08 27.33 +14 15 45.4   704 – Lincoln Laboratory ETS, New Mexico MPS 406919
2008 09 23.38089 04 08 27.75 +14 15 42.1   704 – Lincoln Laboratory ETS, New Mexico MPS 406919
2008 09 23.39281 04 08 28.22 +14 15 40.2   704 – Lincoln Laboratory ETS, New Mexico MPS 406919
2008 09 23.40473 04 08 28.62 +14 15 37.3   704 – Lincoln Laboratory ETS, New Mexico MPS 406919
2008 10 01.34826 04 12 21.53 +13 42 59.5   704 – Lincoln Laboratory ETS, New Mexico MPS 406919
2008 10 01.36058 04 12 21.73 +13 42 57.0   704 – Lincoln Laboratory ETS, New Mexico MPS 406919
2008 10 01.37287 04 12 22.01 +13 42 52.9   704 – Lincoln Laboratory ETS, New Mexico MPS 406919
2008 10 01.38514 04 12 22.25 +13 42 49.2   704 – Lincoln Laboratory ETS, New Mexico MPS 406919
2008 10 01.39742 04 12 22.52 +13 42 46.6   704 – Lincoln Laboratory ETS, New Mexico MPS 406919
2008 10 09.95755 04 14 30.76 +13 00 00.7 18.8 V A50 – Andrushivka Astronomical Observatory MPS 261789
2008 10 09.95917 04 14 30.76 +13 00 00.3 18.8 V A50 – Andrushivka Astronomical Observatory MPS 261789
2008 10 09.96078 04 14 30.75 +12 59 59.5 18.9 V A50 – Andrushivka Astronomical Observatory MPS 261789
2008 10 09.99931 04 14 31.00 +12 59 47.5 19.0 V A50 – Andrushivka Astronomical Observatory MPS 261789
2008 10 21.88487 04 13 48.71 +11 50 07.9 18.7 V A50 – Andrushivka Astronomical Observatory MPS 261789
2008 10 21.88603 04 13 48.71 +11 50 08.0 19.1 V A50 – Andrushivka Astronomical Observatory MPS 261789
2008 10 21.88910 04 13 48.67 +11 50 06.2 19.0 V A50 – Andrushivka Astronomical Observatory MPS 261789
2008 10 21.89215 04 13 48.63 +11 50 05.2 19.2 V A50 – Andrushivka Astronomical Observatory MPS 261790
2008 10 21.89522 04 13 48.55 +11 50 03.9 19.0 V A50 – Andrushivka Astronomical Observatory MPS 261790
2008 10 21.89831 04 13 48.52 +11 50 02.6 19.0 V A50 – Andrushivka Astronomical Observatory MPS 261790
2008 10 21.89946 04 13 48.52 +11 50 01.6 18.5 V A50 – Andrushivka Astronomical Observatory MPS 261790
2008 10 22.89284 04 13 33.36 +11 43 49.6 18.5 V A50 – Andrushivka Astronomical Observatory MPS 261790
2008 10 22.89361 04 13 33.37 +11 43 49.3 19.0 V A50 – Andrushivka Astronomical Observatory MPS 261790
2008 10 22.89591 04 13 33.33 +11 43 48.4 19.1 V A50 – Andrushivka Astronomical Observatory MPS 261790
2008 10 22.89822 04 13 33.29 +11 43 47.5 18.9 V A50 – Andrushivka Astronomical Observatory MPS 261790
2008 10 22.90052 04 13 33.24 +11 43 46.6 18.9 V A50 – Andrushivka Astronomical Observatory MPS 261790
2008 10 22.90282 04 13 33.21 +11 43 45.5 19.0 V A50 – Andrushivka Astronomical Observatory MPS 261790
2008 10 22.90359 04 13 33.18 +11 43 45.4 18.5 V A50 – Andrushivka Astronomical Observatory MPS 261790
2008 10 25.30558 04 12 49.53 +11 28 34.1 18.8 V 703 – Catalina Sky Survey MPS 261790
2008 10 25.31722 04 12 49.24 +11 28 30.5 18.5 V 703 – Catalina Sky Survey MPS 261790
2008 10 25.32891 04 12 49.03 +11 28 25.3 18.4 V 703 – Catalina Sky Survey MPS 261790
2008 10 25.34040 04 12 48.74 +11 28 20.1 18.5 V 703 – Catalina Sky Survey MPS 261790
2008 10 26.31002 04 12 28.27 +11 22 09.6 18.8   704 – Lincoln Laboratory ETS, New Mexico MPS 261790
2008 10 26.32166 04 12 28.00 +11 22 06.1 19.0   704 – Lincoln Laboratory ETS, New Mexico MPS 261790
2008 10 26.33323 04 12 27.70 +11 22 00.4 19.5   704 – Lincoln Laboratory ETS, New Mexico MPS 261790
2008 10 26.34476 04 12 27.46 +11 21 56.0 19.3   704 – Lincoln Laboratory ETS, New Mexico MPS 261790
2008 10 26.35631 04 12 27.14 +11 21 52.0 18.8   704 – Lincoln Laboratory ETS, New Mexico MPS 261790
2008 11 03.32486 04 08 41.89 +10 30 32.7 17.9 V G96 – Mt. Lemmon Survey MPS 263429
2008 11 03.33344 04 08 41.56 +10 30 29.4 17.9 V G96 – Mt. Lemmon Survey MPS 263429
2008 11 03.34186 04 08 41.24 +10 30 26.2 17.9 V G96 – Mt. Lemmon Survey MPS 263429
2008 11 03.35035 04 08 40.95 +10 30 22.8 17.9 V G96 – Mt. Lemmon Survey MPS 263429
2008 11 08.81505 04 05 16.30 +09 55 52.0 18.3 R D29 – Purple Mountain Observatory, XuYi Station MPS 264681
2008 11 08.82967 04 05 15.67 +09 55 46.7 18.3 R D29 – Purple Mountain Observatory, XuYi Station MPS 264681
2008 11 08.84461 04 05 15.05 +09 55 40.6 18.2 R D29 – Purple Mountain Observatory, XuYi Station MPS 264681
2008 11 08.85958 04 05 14.43 +09 55 35.0 18.1 R D29 – Purple Mountain Observatory, XuYi Station MPS 264681
2008 12 01.32607 03 48 10.62 +08 03 40.6 18.1 V 703 – Catalina Sky Survey MPS 267647
2008 12 01.33398 03 48 10.26 +08 03 38.3 18.0 V 703 – Catalina Sky Survey MPS 267647
2008 12 01.34184 03 48 09.90 +08 03 37.4 18.0 V 703 – Catalina Sky Survey MPS 267647
2008 12 01.34962 03 48 09.54 +08 03 35.5 18.2 V 703 – Catalina Sky Survey MPS 267647
